[[{"header":{"parameterUnit":"m.s-1","parameterCategory":2,"la1":30.2991,"la2":30.254,"lo1":-89.0895,"lo2":-89.0444,"dy":0.0017,"dx":0.0017,"nx":28,"ny":28,"refTime":"2025-11-04T09:00:00:Z","depth":"0","parameterNumber":2,"parameterNumberName":"U-component_of_CURRENTS"},"data":[0,0,0,0,0,0,0,0,0,0,0,0,0,0,0,0,0,0,0,0,0,0,0,0,0,0,0,0,0,0,0,0,0,0,0,0,0,0,0,0,0,0,0,0,0,0,0,0,0,0,0,0,0,0,0,0,0,0,0.2855,0.2856,0,0.2937,0.2938,0.2938,0.2954,0.2953,0.2953,0.2952,0.2963,0.2964,0.2964,0,0,0,0,0,0,0,0,0,0,0,0,0,0.2719,0.2721,0.2854,0.2856,0.2857,0.2937,0.2938,0.2939,0.2954,0.2953,0.2952,0.2952,0.2963,0.2964,0.2964,0,0,0,0,0,0,0,0,0,0,0,0,0,0.2785,0.2721,0.2854,0.2875,0.2878,0.2937,0.2938,0.2939,0.2954,0.2953,0.2952,0.2952,0.2962,0.2963,0.2965,0.2986,0,0,0.2968,0.2968,0,0,0,0,0,0,0,0,0.2781,0.279,0.2871,0.2874,0.2878,0.2936,0.2894,0.2952,0.2954,0.2923,0.2952,0.2951,0.2949,0.2951,0.2967,0.2986,0.2987,0.2968,0.2969,0.2969,0.297,0,0,0,0,0,0,0,0.2776,0.2786,0.2885,0.2873,0.2876,0.2884,0.2892,0.2905,0.2936,0.2926,0.2927,0.294,0.295,0.2966,0.2967,0.2987,0.2968,0.2969,0.297,0.297,0.3035,0.3036,0,0,0,0,0,0,0.2771,0.2782,0.2882,0.2888,0.2829,0.2887,0.2896,0.2916,0.2938,0.2942,0.2941,0.2941,0.2964,0.2965,0.2967,0.3017,0.2969,0.297,0.2971,0.3034,0.3036,0.3037,0,0,0,0,0,0,0.2768,0.278,0.2879,0.2838,0.2851,0.289,0.2913,0.2918,0.2934,0.295,0.2952,0.2951,0.2963,0.2965,0.2993,0.3016,0.2971,0.2972,0.3033,0.3035,0.3036,0.3101,0,0,0,0,0,0,0.2764,0.2778,0.2791,0.2838,0.2853,0.2922,0.2914,0.2921,0.2944,0.2945,0.296,0.296,0.2963,0.2991,0.2994,0.3017,0.2973,0.3032,0.3034,0.3036,0.3098,0.3105,0.3111,0,0,0,0,0,0.2759,0.2783,0.2791,0.2803,0.287,0.2923,0.2932,0.2955,0.2945,0.2964,0.2975,0.296,0.3005,0.2994,0.2996,0.302,0.3031,0.3033,0.3036,0.3095,0.3103,0.3111,0,0,0,0,0,0,0.2733,0.2788,0.2798,0.2838,0.288,0.2927,0.2947,0.2957,0.2982,0.2979,0.298,0.2983,0.3014,0.3007,0.2994,0.3043,0.3013,0.3016,0.3057,0.3065,0.3071,0.3067,0.2974,0,0,0,0,0,0.2733,0.2763,0.2816,0.2848,0.2869,0.2905,0.2928,0.2948,0.2977,0.2987,0.2996,0.3006,0.3028,0.3038,0.3052,0.3082,0.3091,0.3096,0.3103,0.3108,0.3106,0.3136,0.3146,0.3045,0.3045,0.3045,0,0,0.2728,0.2766,0.2781,0.2844,0.2875,0.292,0.2917,0.296,0.2994,0.2983,0.3022,0.303,0.3041,0.3079,0.3091,0.3076,0.315,0.3111,0.3116,0.3111,0.314,0.315,0.3159,0.3046,0.3046,0.3046,0,0,0.2742,0.2773,0.2803,0.2843,0.29,0.2931,0.2943,0.2992,0.301,0.3054,0.3054,0.3077,0.3105,0.3124,0.3136,0.3184,0.3183,0.3185,0.3218,0.3248,0.3257,0.3264,0.3325,0.3337,0.3189,0.3189,0.3189,0,0.2732,0.2786,0.282,0.2865,0.2902,0.2936,0.298,0.3013,0.3062,0.3083,0.3071,0.3124,0.3129,0.3181,0.3199,0.32,0.3225,0.319,0.3258,0.3265,0.3272,0.3331,0.3344,0.3192,0.3192,0.3192,0.3191,0,0.2774,0.2818,0.2842,0.2911,0.2953,0.3001,0.3053,0.309,0.3109,0.3136,0.3183,0.3197,0.3226,0.3234,0.3233,0.3286,0.3294,0.3264,0.3239,0.3286,0.3346,0.3358,0.3197,0.3196,0.3195,0.3194,0,0,0.2746,0.285,0.2857,0.2899,0.2984,0.3024,0.3088,0.3157,0.3194,0.3227,0.3273,0.3307,0.3304,0.3315,0.3317,0.3339,0.3419,0.3324,0.3324,0.3387,0.3516,0.3646,0.3672,0.3402,0.3404,0.3405,0.3553,0,0.2768,0.2853,0.2903,0.2984,0.3035,0.3093,0.3149,0.3211,0.3253,0.3304,0.3323,0.3363,0.334,0.3357,0.3379,0.3407,0.3447,0.3383,0.3457,0.346,0.3572,0.3688,0.3583,0.3717,0.3564,0.3566,0.3568,0,0.2789,0.2851,0.2925,0.3031,0.3057,0.3099,0.3196,0.3252,0.333,0.3363,0.3405,0.3424,0.3481,0.3436,0.352,0.3482,0.3506,0.3519,0.3525,0.3627,0.3612,0.3637,0.3744,0.364,0.3586,0.3584,0.3583,0,0.2756,0.2866,0.2924,0.296,0.3077,0.3111,0.3167,0.3253,0.3314,0.3391,0.3445,0.3499,0.3542,0.3571,0.3638,0.3575,0.3738,0.365,0.3795,0.3804,0.372,0.3722,0.3733,0.3706,0.3706,0.3705,0.3705,0,0.2763,0.2811,0.2904,0.2937,0.3005,0.3085,0.3157,0.3221,0.3321,0.3405,0.3458,0.3555,0.3573,0.3679,0.3693,0.3837,0.3797,0.3841,0.3864,0.3747,0.3749,0.3657,0.3609,0.3711,0.371,0.3709,0.3708,0,0.2715,0.2782,0.285,0.2955,0.2988,0.3024,0.315,0.3202,0.3306,0.3422,0.3458,0.3612,0.3778,0.3847,0.3934,0.3943,0.3956,0.4086,0.3984,0.3993,0.4012,0.3973,0.3907,0.3786,0.425,0.4254,0.4258,0,0.27,0.2728,0.2832,0.2862,0.2901,0.2976,0.3029,0.3163,0.3236,0.348,0.3537,0.3753,0.3904,0.414,0.4223,0.4338,0.4143,0.4286,0.4141,0.4054,0.4023,0.3825,0.3708,0.4051,0.4053,0.4054,0.4055,0,0.266,0.2685,0.2735,0.2795,0.2843,0.2922,0.3014,0.3079,0.3259,0.3389,0.36,0.3749,0.4064,0.4182,0.4392,0.4427,0.4113,0.4323,0.4215,0.3893,0.3685,0.3565,0.3936,0.4067,0.4066,0.4065,0.4065,0.4064,0.2607,0.2618,0.2669,0.2725,0.2779,0.2837,0.2869,0.3001,0.313,0.3322,0.3552,0.3756,0.4037,0.4346,0.4374,0.438,0.428,0.4222,0.4193,0.4008,0.3854,0.4316,0.4491,0.4493,0.4494,0.4495,0.4495,0,0.2534,0.256,0.2603,0.2654,0.2676,0.2743,0.284,0.2865,0.2977,0.3237,0.3426,0.3738,0.3947,0.4141,0.4316,0.4217,0.3942,0.4105,0.3714,0.3609,0.401,0.3965,0.4054,0.4054,0.4054,0.4054,0.4054,0.4055,0.2495,0.2502,0.2534,0.2543,0.2574,0.2574,0.2606,0.267,0.2823,0.3034,0.323,0.3445,0.3816,0.4156,0.4151,0.4046,0.3676,0.3607,0.3534,0.3757,0.3759,0.3761,0.3704,0.3737,0.3737,0.2931,0.2925,0.2921]},{"header":{"parameterUnit":"m.s-1","parameterCategory":2,"la1":30.2991,"la2":30.254,"lo1":-89.0895,"lo2":-89.0444,"dy":0.0017,"dx":0.0017,"nx":28,"ny":28,"refTime":"2025-11-04T09:00:00:Z","depth":"0","parameterNumber":3,"parameterNumberName":"V-component_of_CURRENTS"},"data":[0,0,0,0,0,0,0,0,0,0,0,0,0,0,0,0,0,0,0,0,0,0,0,0,0,0,0,0,0,0,0,0,0,0,0,0,0,0,0,0,0,0,0,0,0,0,0,0,0,0,0,0,0,0,0,0,0,0,-0.062,-0.062,0,-0.0671,-0.0671,-0.0672,-0.0727,-0.0728,-0.0729,-0.0729,-0.0825,-0.0827,-0.0829,0,0,0,0,0,0,0,0,0,0,0,0,0,-0.058,-0.0581,-0.062,-0.062,-0.0621,-0.0671,-0.0671,-0.0672,-0.0727,-0.0728,-0.0729,-0.073,-0.0824,-0.0827,-0.0829,0,0,0,0,0,0,0,0,0,0,0,0,0,-0.0612,-0.0581,-0.0619,-0.0653,-0.0656,-0.067,-0.0671,-0.0672,-0.0727,-0.0728,-0.0729,-0.073,-0.0823,-0.0826,-0.0829,-0.0827,0,0,-0.0838,-0.0839,0,0,0,0,0,0,0,0,-0.0611,-0.0614,-0.0648,-0.0651,-0.0654,-0.0692,-0.0693,-0.0726,-0.0727,-0.0702,-0.0729,-0.0731,-0.0783,-0.0789,-0.0798,-0.0832,-0.0836,-0.0838,-0.084,-0.0841,-0.0842,0,0,0,0,0,0,0,-0.0608,-0.0612,-0.0641,-0.0648,-0.0652,-0.0669,-0.0675,-0.0699,-0.0738,-0.0704,-0.0708,-0.0711,-0.0786,-0.0795,-0.0801,-0.0837,-0.0838,-0.0841,-0.0843,-0.0844,-0.0929,-0.093,0,0,0,0,0,0,-0.0597,-0.061,-0.064,-0.0643,-0.0633,-0.0669,-0.0675,-0.068,-0.0737,-0.0746,-0.071,-0.0713,-0.079,-0.0797,-0.0805,-0.0864,-0.0841,-0.0844,-0.0846,-0.0929,-0.0929,-0.093,0,0,0,0,0,0,-0.0596,-0.0599,-0.0638,-0.0626,-0.0632,-0.0668,-0.0674,-0.0681,-0.069,-0.0741,-0.0751,-0.0712,-0.0791,-0.08,-0.0835,-0.0866,-0.0845,-0.0848,-0.0928,-0.0929,-0.093,-0.0946,0,0,0,0,0,0,-0.0595,-0.0599,-0.0592,-0.0625,-0.0632,-0.0639,-0.0673,-0.0681,-0.069,-0.0695,-0.0745,-0.0755,-0.0792,-0.0831,-0.0838,-0.087,-0.085,-0.0928,-0.0929,-0.093,-0.0945,-0.0947,-0.0949,0,0,0,0,0,-0.0593,-0.0576,-0.0592,-0.0595,-0.0624,-0.0638,-0.0642,-0.0673,-0.0689,-0.0686,-0.0732,-0.0754,-0.0843,-0.0833,-0.0842,-0.0875,-0.0927,-0.0928,-0.0929,-0.0944,-0.0947,-0.0949,0,0,0,0,0,0,-0.0544,-0.0581,-0.0599,-0.0591,-0.0611,-0.0646,-0.0641,-0.0664,-0.0695,-0.0704,-0.0755,-0.0768,-0.0812,-0.0831,-0.0819,-0.0901,-0.0891,-0.0893,-0.0898,-0.0902,-0.0904,-0.0897,-0.0853,0,0,0,0,0,-0.0532,-0.0536,-0.057,-0.0561,-0.057,-0.0604,-0.0611,-0.0634,-0.0668,-0.0682,-0.0721,-0.0768,-0.0822,-0.085,-0.0884,-0.0922,-0.0936,-0.095,-0.0952,-0.0954,-0.0954,-0.1009,-0.1017,-0.0934,-0.0934,-0.0934,0,0,-0.051,-0.0529,-0.0531,-0.0552,-0.057,-0.0588,-0.0611,-0.0618,-0.0648,-0.0687,-0.073,-0.0769,-0.083,-0.0883,-0.0905,-0.0906,-0.098,-0.0955,-0.0957,-0.0956,-0.1012,-0.102,-0.1027,-0.0935,-0.0935,-0.0935,0,0,-0.047,-0.0485,-0.0481,-0.0501,-0.0526,-0.0558,-0.0558,-0.0594,-0.0624,-0.0663,-0.0715,-0.0769,-0.0826,-0.0894,-0.0935,-0.0964,-0.0984,-0.0973,-0.0993,-0.1047,-0.1054,-0.1061,-0.1068,-0.1075,-0.0983,-0.0984,-0.0984,0,-0.0439,-0.0449,-0.0477,-0.0484,-0.0501,-0.0545,-0.0552,-0.0593,-0.0639,-0.0667,-0.0675,-0.079,-0.0841,-0.0938,-0.0963,-0.0973,-0.0985,-0.0981,-0.1051,-0.1058,-0.1065,-0.107,-0.1078,-0.0984,-0.0984,-0.0984,-0.0984,0,-0.041,-0.0421,-0.0416,-0.0455,-0.0475,-0.0482,-0.0546,-0.0575,-0.0615,-0.0662,-0.0737,-0.081,-0.0878,-0.0916,-0.0958,-0.1042,-0.1026,-0.1042,-0.1045,-0.1075,-0.1078,-0.1086,-0.0986,-0.0985,-0.0985,-0.0985,0,0,-0.0334,-0.0387,-0.0385,-0.0399,-0.0463,-0.0469,-0.0532,-0.0593,-0.0617,-0.0694,-0.0733,-0.0864,-0.0891,-0.0938,-0.0998,-0.1066,-0.1131,-0.1078,-0.108,-0.1084,-0.1217,-0.1111,-0.111,-0.1162,-0.1164,-0.1166,-0.1192,0,-0.0303,-0.0307,-0.0354,-0.0369,-0.0378,-0.045,-0.0493,-0.0559,-0.0618,-0.0662,-0.0777,-0.0823,-0.0906,-0.0924,-0.1019,-0.109,-0.1156,-0.112,-0.1187,-0.1188,-0.1093,-0.1117,-0.1025,-0.1032,-0.1199,-0.1201,-0.1202,0,-0.0264,-0.0274,-0.0278,-0.0325,-0.0333,-0.0353,-0.0417,-0.0461,-0.0562,-0.06,-0.0696,-0.0758,-0.0883,-0.0925,-0.1101,-0.1071,-0.1149,-0.121,-0.1213,-0.1115,-0.1098,-0.1035,-0.1041,-0.126,-0.1214,-0.1213,-0.1212,0,-0.0189,-0.0223,-0.0222,-0.0239,-0.0298,-0.0313,-0.0349,-0.0435,-0.0446,-0.0546,-0.0534,-0.0713,-0.0737,-0.0908,-0.104,-0.1075,-0.119,-0.1249,-0.1231,-0.1222,-0.1155,-0.1137,-0.1382,-0.137,-0.137,-0.137,-0.137,0,-0.0143,-0.0139,-0.0179,-0.0175,-0.0153,-0.0233,-0.0223,-0.028,-0.0335,-0.0295,-0.0478,-0.0447,-0.0732,-0.0826,-0.1001,-0.1109,-0.1161,-0.1228,-0.123,-0.1153,-0.1135,-0.1329,-0.147,-0.1371,-0.137,-0.137,-0.137,0,-0.0065,-0.0098,-0.0081,-0.0116,-0.0113,-0.0094,-0.0104,-0.0088,-0.0156,-0.0103,-0.0113,-0.0246,-0.0341,-0.0596,-0.0821,-0.0989,-0.1237,-0.1168,-0.1027,-0.1012,-0.1211,-0.1352,-0.1562,-0.1662,-0.1177,-0.1174,-0.1172,0,-0.0033,-0.0017,-0.0,0.0039,0.0031,0.0049,0.0084,0.0019,0.0064,0.007,0.0138,0.0048,0.0065,-0.0239,-0.055,-0.0824,-0.1096,-0.0954,-0.1025,-0.1205,-0.1368,-0.1485,-0.1565,-0.0943,-0.0939,-0.0936,-0.0934,0,0.0043,0.0058,0.0081,0.0172,0.0226,0.0282,0.0333,0.0409,0.0389,0.0473,0.061,0.0626,0.0367,0.0163,-0.0248,-0.0486,-0.1088,-0.0896,-0.1153,-0.1257,-0.1335,-0.1433,-0.0921,-0.0907,-0.0909,-0.0911,-0.0913,-0.0914,0.0118,0.0171,0.0228,0.032,0.0398,0.0531,0.0635,0.0736,0.089,0.1086,0.1046,0.1184,0.0769,0.0253,-0.0113,-0.0761,-0.0845,-0.0974,-0.1141,-0.1251,-0.133,-0.0719,-0.0662,-0.0663,-0.0664,-0.0665,-0.0666,0,0.0223,0.0287,0.0374,0.0509,0.0646,0.0644,0.0823,0.0965,0.1247,0.1456,0.1626,0.1557,0.1049,0.0409,-0.0443,-0.0917,-0.1182,-0.1239,-0.1449,-0.1532,-0.1037,-0.1009,-0.0938,-0.0938,-0.0938,-0.0938,-0.0937,-0.0937,0.0288,0.0406,0.0459,0.0715,0.0819,0.1029,0.1161,0.1395,0.1588,0.1927,0.2075,0.2124,0.1599,0.0043,-0.1052,-0.1336,-0.1772,-0.1796,-0.2059,-0.1782,-0.1773,-0.1765,-0.1774,-0.1866,-0.1867,-0.2469,-0.2475,-0.248]}],[{"header":{"parameterUnit":"m.s-1","parameterCategory":2,"la1":30.2991,"la2":30.254,"lo1":-89.0895,"lo2":-89.0444,"dy":0.0017,"dx":0.0017,"nx":28,"ny":28,"refTime":"2025-11-04T09:00:00:Z","depth":"2","parameterNumber":2,"parameterNumberName":"U-component_of_CURRENTS"},"data":[0,0,0,0,0,0,0,0,0,0,0,0,0,0,0,0,0,0,0,0,0,0,0,0,0,0,0,0,0,0,0,0,0,0,0,0,0,0,0,0,0,0,0,0,0,0,0,0,0,0,0,0,0,0,0,0,0,0,0.2423,0.2423,0,0.2476,0.2477,0.2478,0.2508,0.2508,0.2508,0.2508,0.2506,0.2506,0.2506,0,0,0,0,0,0,0,0,0,0,0,0,0,0.2315,0.2317,0.2423,0.2423,0.2424,0.2476,0.2477,0.2478,0.2508,0.2508,0.2508,0.2508,0.2506,0.2506,0.2506,0,0,0,0,0,0,0,0,0,0,0,0,0,0.2366,0.2317,0.2423,0.2444,0.2446,0.2476,0.2477,0.2478,0.2508,0.2508,0.2508,0.2508,0.2506,0.2506,0.2506,0.2508,0,0,0.2506,0.2506,0,0,0,0,0,0,0,0,0.2363,0.237,0.244,0.2443,0.2445,0.2484,0.2438,0.2485,0.2508,0.2487,0.2508,0.2508,0.2492,0.2494,0.2507,0.2508,0.2508,0.2506,0.2506,0.2506,0.2506,0,0,0,0,0,0,0,0.236,0.2368,0.2446,0.2441,0.2444,0.2439,0.2447,0.2447,0.249,0.2489,0.2491,0.2493,0.2494,0.2507,0.2507,0.2508,0.2506,0.2506,0.2506,0.2506,0.2569,0.2571,0,0,0,0,0,0,0.2351,0.2365,0.2444,0.2447,0.2401,0.2441,0.245,0.2473,0.2491,0.2494,0.2493,0.2494,0.2507,0.2507,0.2507,0.2573,0.2506,0.2506,0.2507,0.2568,0.257,0.2571,0,0,0,0,0,0,0.2349,0.2359,0.2442,0.2404,0.2414,0.2443,0.2469,0.2474,0.2494,0.2495,0.2497,0.2508,0.2507,0.2507,0.2524,0.257,0.2507,0.2507,0.2566,0.2568,0.2571,0.2663,0,0,0,0,0,0,0.2346,0.2358,0.2375,0.2405,0.2416,0.2466,0.2469,0.2475,0.2494,0.2497,0.2508,0.2508,0.2507,0.2524,0.2524,0.2569,0.2507,0.2564,0.2567,0.257,0.2658,0.2669,0.2678,0,0,0,0,0,0.2343,0.2356,0.2377,0.2386,0.2439,0.2467,0.2473,0.2493,0.2495,0.251,0.2521,0.2508,0.2544,0.2525,0.2524,0.2571,0.2562,0.2566,0.2569,0.2654,0.2666,0.2677,0,0,0,0,0,0,0.2311,0.2361,0.2384,0.2412,0.2444,0.2471,0.2482,0.2496,0.2519,0.2524,0.2521,0.2522,0.2553,0.2545,0.2524,0.2598,0.2554,0.2558,0.2618,0.263,0.2639,0.2647,0.2507,0,0,0,0,0,0.2316,0.2346,0.2387,0.2412,0.2427,0.2459,0.2472,0.2494,0.2513,0.2524,0.2533,0.2547,0.2568,0.2584,0.2589,0.2627,0.2636,0.2658,0.2668,0.2676,0.2683,0.2763,0.2782,0.2584,0.2584,0.2584,0,0,0.231,0.234,0.2358,0.2408,0.2433,0.2471,0.2468,0.2497,0.2555,0.2518,0.2583,0.2571,0.2581,0.2628,0.2643,0.263,0.2733,0.2681,0.2688,0.269,0.2769,0.2789,0.2806,0.2586,0.2586,0.2585,0,0,0.2311,0.2344,0.2373,0.2406,0.2451,0.2476,0.2486,0.2527,0.2576,0.2618,0.2622,0.2641,0.2658,0.2697,0.2713,0.2778,0.2772,0.2777,0.2848,0.2927,0.2944,0.296,0.2981,0.2998,0.2796,0.2796,0.2796,0,0.2304,0.2353,0.2382,0.242,0.2453,0.2481,0.2525,0.2583,0.263,0.2672,0.2646,0.2697,0.27,0.2786,0.2813,0.2804,0.2825,0.2805,0.2942,0.2958,0.2972,0.299,0.3007,0.2801,0.28,0.28,0.2799,0,0.2334,0.2377,0.2391,0.2462,0.2501,0.2536,0.2617,0.2673,0.2706,0.2747,0.2818,0.2825,0.2856,0.2868,0.2859,0.2971,0.2942,0.2937,0.2916,0.2998,0.3011,0.3027,0.2808,0.2806,0.2805,0.2804,0,0,0.2306,0.2397,0.2402,0.245,0.253,0.2564,0.2675,0.2771,0.284,0.2882,0.2963,0.3006,0.2991,0.301,0.3014,0.3081,0.319,0.3057,0.3059,0.3082,0.3333,0.3288,0.33,0.3219,0.3223,0.3226,0.3296,0,0.2323,0.2402,0.2445,0.2525,0.2577,0.2649,0.2744,0.2839,0.2908,0.299,0.304,0.3093,0.3062,0.3075,0.3144,0.3174,0.324,0.3169,0.3245,0.3246,0.3202,0.3322,0.3081,0.3123,0.3312,0.3314,0.3316,0,0.2339,0.2397,0.2476,0.2585,0.2611,0.2661,0.2804,0.2894,0.3028,0.3083,0.315,0.3173,0.3275,0.323,0.3354,0.3311,0.3334,0.3349,0.3353,0.3291,0.3234,0.3074,0.3145,0.3343,0.3341,0.3339,0.3337,0,0.2309,0.2415,0.2479,0.2516,0.2638,0.2699,0.277,0.2908,0.2997,0.3143,0.3196,0.3298,0.3362,0.342,0.3466,0.3421,0.3589,0.353,0.3507,0.3501,0.33,0.3272,0.3633,0.3633,0.3633,0.3632,0.3632,0,0.2308,0.2355,0.247,0.2497,0.2586,0.2685,0.2781,0.2884,0.302,0.3102,0.3231,0.3321,0.3422,0.3522,0.3525,0.3583,0.365,0.3544,0.3543,0.3322,0.3296,0.3484,0.3466,0.3635,0.3634,0.3634,0.3633,0,0.2264,0.2327,0.2399,0.2524,0.2564,0.2629,0.2766,0.2841,0.2991,0.311,0.3161,0.3371,0.3505,0.359,0.3699,0.367,0.3714,0.3717,0.3429,0.3394,0.3539,0.3525,0.3672,0.3671,0.3671,0.3671,0.367,0,0.2246,0.228,0.2394,0.2427,0.2476,0.2581,0.2649,0.2805,0.2884,0.3124,0.3176,0.3383,0.3468,0.364,0.3679,0.3709,0.3749,0.3487,0.3362,0.3573,0.3557,0.3542,0.3529,0.3112,0.3107,0.3104,0.31,0,0.2206,0.2239,0.2295,0.238,0.244,0.2509,0.2618,0.2669,0.2847,0.2958,0.3092,0.3179,0.3396,0.3365,0.349,0.3466,0.3457,0.3406,0.3751,0.3149,0.3054,0.3035,0.3039,0.3065,0.3069,0.3071,0.3073,0.3075,0.2166,0.2184,0.2251,0.2326,0.2385,0.242,0.245,0.2553,0.2639,0.2763,0.2904,0.297,0.3083,0.3149,0.3104,0.3115,0.3317,0.3157,0.3165,0.3179,0.3112,0.3023,0.3012,0.3015,0.3017,0.302,0.3022,0,0.2114,0.2137,0.2196,0.2251,0.2272,0.2347,0.2415,0.2403,0.2445,0.257,0.2633,0.2497,0.2558,0.2676,0.2648,0.268,0.2612,0.2567,0.2445,0.2486,0.2521,0.2414,0.2132,0.2128,0.2125,0.2122,0,0,0.2075,0.2092,0.2119,0.2118,0.2165,0.2165,0.2178,0.2155,0.2207,0.2169,0.2201,0.2425,0.258,0.2296,0.2309,0.2203,0.2303,0.2128,0.2857,0.2753,0.2782,0.29,0.279,0,0,0,0,0]},{"header":{"parameterUnit":"m.s-1","parameterCategory":2,"la1":30.2991,"la2":30.254,"lo1":-89.0895,"lo2":-89.0444,"dy":0.0017,"dx":0.0017,"nx":28,"ny":28,"refTime":"2025-11-04T09:00:00:Z","depth":"2","parameterNumber":3,"parameterNumberName":"V-component_of_CURRENTS"},"data":[0,0,0,0,0,0,0,0,0,0,0,0,0,0,0,0,0,0,0,0,0,0,0,0,0,0,0,0,0,0,0,0,0,0,0,0,0,0,0,0,0,0,0,0,0,0,0,0,0,0,0,0,0,0,0,0,0,0,-0.0061,-0.0062,0,-0.012,-0.0121,-0.0122,-0.0178,-0.0179,-0.0179,-0.018,-0.0286,-0.0288,-0.029,0,0,0,0,0,0,0,0,0,0,0,0,0,-0.0026,-0.0026,-0.0061,-0.0062,-0.0063,-0.012,-0.0121,-0.0122,-0.0178,-0.0179,-0.0179,-0.018,-0.0285,-0.0287,-0.029,0,0,0,0,0,0,0,0,0,0,0,0,0,-0.006,-0.0026,-0.0061,-0.0096,-0.01,-0.012,-0.0121,-0.0122,-0.0178,-0.0179,-0.0179,-0.018,-0.0284,-0.0287,-0.0291,-0.0295,0,0,-0.0301,-0.0303,0,0,0,0,0,0,0,0,-0.0058,-0.0062,-0.009,-0.0094,-0.0098,-0.0141,-0.0147,-0.0182,-0.0178,-0.015,-0.018,-0.0181,-0.024,-0.0247,-0.0258,-0.03,-0.0305,-0.0301,-0.0304,-0.0305,-0.0306,0,0,0,0,0,0,0,-0.0056,-0.006,-0.0086,-0.0091,-0.0095,-0.0118,-0.0124,-0.0154,-0.0192,-0.0152,-0.0156,-0.016,-0.0243,-0.0254,-0.0261,-0.0306,-0.0301,-0.0304,-0.0307,-0.0308,-0.0398,-0.0398,0,0,0,0,0,0,-0.0042,-0.0057,-0.0085,-0.0088,-0.0078,-0.0118,-0.0125,-0.0128,-0.0191,-0.02,-0.0159,-0.0162,-0.0248,-0.0257,-0.0265,-0.0296,-0.0305,-0.0308,-0.031,-0.0397,-0.0398,-0.0398,0,0,0,0,0,0,-0.0041,-0.0044,-0.0082,-0.0073,-0.0079,-0.0117,-0.0121,-0.0128,-0.0143,-0.0195,-0.0206,-0.0166,-0.0249,-0.026,-0.0293,-0.03,-0.031,-0.0313,-0.0397,-0.0398,-0.0398,-0.0345,0,0,0,0,0,0,-0.004,-0.0044,-0.0042,-0.0072,-0.0079,-0.0088,-0.012,-0.0129,-0.0143,-0.0148,-0.0204,-0.0214,-0.0251,-0.0287,-0.0296,-0.0305,-0.0316,-0.0397,-0.0397,-0.0398,-0.0346,-0.0343,-0.0341,0,0,0,0,0,-0.0039,-0.0023,-0.0041,-0.0044,-0.0075,-0.0087,-0.0093,-0.0124,-0.0142,-0.0142,-0.0184,-0.0213,-0.0298,-0.029,-0.03,-0.031,-0.0396,-0.0397,-0.0398,-0.0347,-0.0344,-0.0341,0,0,0,0,0,0,-0.0006,-0.0028,-0.0049,-0.0041,-0.0063,-0.0096,-0.0095,-0.0119,-0.0151,-0.0159,-0.0211,-0.0224,-0.0252,-0.0289,-0.0278,-0.0339,-0.0355,-0.0357,-0.0313,-0.031,-0.0307,-0.0272,-0.0319,0,0,0,0,0,0.0003,0.0007,-0.0023,-0.0018,-0.0026,-0.0062,-0.0071,-0.0093,-0.0124,-0.0139,-0.0179,-0.0226,-0.0262,-0.0291,-0.0321,-0.0355,-0.0378,-0.0371,-0.0369,-0.0366,-0.0346,-0.0432,-0.0435,-0.04,-0.04,-0.04,0,0,0.0015,0.0005,0.0005,-0.0011,-0.0031,-0.0028,-0.0069,-0.0078,-0.009,-0.0145,-0.0172,-0.0208,-0.0264,-0.0298,-0.0317,-0.0333,-0.0377,-0.0367,-0.0364,-0.0345,-0.0433,-0.0437,-0.044,-0.0401,-0.0401,-0.0401,0,0,0.0051,0.0034,0.0049,0.0036,0.0015,-0.0001,-0.0,-0.0034,-0.0068,-0.009,-0.0139,-0.0182,-0.023,-0.0284,-0.0314,-0.0319,-0.035,-0.0329,-0.0302,-0.0386,-0.039,-0.0393,-0.0373,-0.0376,-0.0342,-0.0342,-0.0342,0,0.0065,0.008,0.0051,0.0061,0.006,0.0017,0.0033,-0.0004,-0.0048,-0.0063,-0.009,-0.0162,-0.0225,-0.0271,-0.0282,-0.0313,-0.0327,-0.0308,-0.0382,-0.0387,-0.0391,-0.0371,-0.0374,-0.034,-0.034,-0.034,-0.0341,0,0.0107,0.0118,0.0129,0.0129,0.0123,0.0132,0.0085,0.0066,0.0032,0.0005,-0.0038,-0.0123,-0.0168,-0.0205,-0.0248,-0.0307,-0.0289,-0.0358,-0.0386,-0.0391,-0.0369,-0.0373,-0.0336,-0.0337,-0.0338,-0.0339,0,0,0.015,0.0158,0.0164,0.0179,0.0161,0.0169,0.0145,0.0128,0.013,0.0065,0.0058,-0.0041,-0.0079,-0.0117,-0.0192,-0.0273,-0.0322,-0.0324,-0.033,-0.0292,-0.0425,-0.0428,-0.0432,-0.0411,-0.0412,-0.0414,-0.0376,0,0.0194,0.0238,0.0226,0.0272,0.0291,0.0251,0.0243,0.0216,0.0181,0.0162,0.006,0.0027,-0.0053,-0.0083,-0.0175,-0.0286,-0.0338,-0.0319,-0.0434,-0.0435,-0.0432,-0.0441,-0.043,-0.0399,-0.0381,-0.0381,-0.0382,0,0.0241,0.0268,0.0316,0.0347,0.0353,0.0368,0.0369,0.0354,0.0305,0.0267,0.0215,0.0154,0.0048,-0.0041,-0.021,-0.0191,-0.0292,-0.0377,-0.038,-0.0405,-0.0449,-0.0405,-0.0408,-0.0389,-0.0389,-0.0388,-0.0388,0,0.0299,0.0336,0.0383,0.039,0.0411,0.0419,0.0424,0.0395,0.0401,0.033,0.0346,0.0218,0.0158,-0.0005,-0.0177,-0.0202,-0.0343,-0.0414,-0.0484,-0.048,-0.0503,-0.0501,-0.0528,-0.0528,-0.0528,-0.0528,-0.0529,0,0.0358,0.0399,0.0413,0.0446,0.0501,0.048,0.0534,0.0501,0.0492,0.0542,0.0404,0.0416,0.0153,0.0052,-0.0123,-0.0293,-0.0308,-0.0455,-0.0492,-0.0477,-0.0474,-0.0509,-0.0507,-0.0527,-0.0527,-0.0528,-0.0528,0,0.0407,0.0423,0.0485,0.0519,0.0532,0.0565,0.0618,0.0662,0.0624,0.0679,0.0663,0.0557,0.0418,0.0204,-0.0046,-0.0206,-0.039,-0.0446,-0.0354,-0.0383,-0.0463,-0.0459,-0.0505,-0.0505,-0.0505,-0.0505,-0.0505,0,0.0439,0.0471,0.054,0.0586,0.0604,0.0656,0.0707,0.0708,0.0769,0.0792,0.0838,0.0728,0.067,0.0338,0.0011,-0.0264,-0.0327,-0.0424,-0.051,-0.0439,-0.047,-0.0466,-0.0461,-0.0481,-0.0481,-0.0481,-0.0481,0,0.0499,0.0518,0.0575,0.0659,0.0727,0.0813,0.0888,0.0961,0.0994,0.1041,0.1087,0.1042,0.0741,0.0431,0.0039,-0.0157,-0.0392,-0.0431,-0.0418,-0.05,-0.0419,-0.0448,-0.0445,-0.048,-0.048,-0.048,-0.048,-0.048,0.054,0.0585,0.066,0.0742,0.083,0.0952,0.1043,0.114,0.125,0.1324,0.1276,0.1204,0.0861,0.0346,0.0008,-0.0357,-0.0351,-0.0495,-0.0494,-0.0494,-0.051,-0.0437,-0.0496,-0.0496,-0.0496,-0.0496,-0.0496,0,0.0589,0.0646,0.0737,0.0853,0.0965,0.0996,0.1161,0.1249,0.1394,0.144,0.1447,0.1126,0.0789,0.0415,-0.0128,-0.045,-0.0494,-0.0542,-0.0535,-0.0533,-0.0532,-0.0552,-0.0547,-0.0548,-0.0549,-0.055,0,0,0.0622,0.0713,0.0765,0.0949,0.1035,0.1194,0.1298,0.1411,0.1477,0.1506,0.1462,0.135,0.0898,0.0507,0.0065,-0.0241,-0.0313,-0.0302,-0.0231,-0.017,-0.0165,-0.0478,-0.0502,0,0,0,0,0]}],[{"header":{"parameterUnit":"m.s-1","parameterCategory":2,"la1":30.2991,"la2":30.254,"lo1":-89.0895,"lo2":-89.0444,"dy":0.0017,"dx":0.0017,"nx":28,"ny":28,"refTime":"2025-11-04T09:00:00:Z","depth":"4","parameterNumber":2,"parameterNumberName":"U-component_of_CURRENTS"},"data":[0,0,0,0,0,0,0,0,0,0,0,0,0,0,0,0,0,0,0,0,0,0,0,0,0,0,0,0,0,0,0,0,0,0,0,0,0,0,0,0,0,0,0,0,0,0,0,0,0,0,0,0,0,0,0,0,0,0,0.1375,0.1376,0,0.1442,0.1443,0.1443,0.149,0.1491,0.1491,0.1492,0.1568,0.1569,0.157,0,0,0,0,0,0,0,0,0,0,0,0,0,0.1285,0.1286,0.1375,0.1376,0.1377,0.1442,0.1443,0.1443,0.149,0.1491,0.1492,0.1492,0.1567,0.1569,0.157,0,0,0,0,0,0,0,0,0,0,0,0,0,0.1331,0.1286,0.1374,0.1412,0.1416,0.1442,0.1443,0.1443,0.149,0.1491,0.1492,0.1493,0.1567,0.1569,0.157,0.156,0,0,0.1576,0.1577,0,0,0,0,0,0,0,0,0.1328,0.1333,0.1405,0.1409,0.1414,0.1463,0.1439,0.1484,0.1489,0.1457,0.1492,0.1493,0.1535,0.154,0.1544,0.1563,0.1566,0.1577,0.1578,0.1579,0.1579,0,0,0,0,0,0,0,0.1325,0.1331,0.1397,0.1406,0.1412,0.1425,0.1432,0.1447,0.1485,0.146,0.1464,0.1479,0.1537,0.1542,0.1546,0.1567,0.1577,0.1578,0.1579,0.158,0.1689,0.1691,0,0,0,0,0,0,0.1324,0.1328,0.1395,0.1399,0.1378,0.1426,0.1434,0.1442,0.1485,0.1494,0.1478,0.1481,0.1538,0.1543,0.1549,0.163,0.1579,0.158,0.1582,0.1688,0.169,0.1692,0,0,0,0,0,0,0.1322,0.1329,0.1392,0.1369,0.1379,0.1426,0.1435,0.1443,0.1484,0.15,0.1508,0.1516,0.1539,0.1546,0.1604,0.163,0.1581,0.1583,0.1686,0.1688,0.1691,0.1733,0,0,0,0,0,0,0.1319,0.1328,0.1347,0.1369,0.138,0.1432,0.1435,0.1444,0.1491,0.1496,0.1534,0.154,0.154,0.1602,0.1606,0.1631,0.1585,0.1683,0.1687,0.169,0.173,0.1737,0.1743,0,0,0,0,0,0.1315,0.1333,0.1347,0.1356,0.14,0.1433,0.144,0.1475,0.1492,0.1514,0.155,0.1541,0.1625,0.1605,0.161,0.1636,0.1682,0.1686,0.169,0.1727,0.1736,0.1743,0,0,0,0,0,0,0.1305,0.1341,0.1356,0.1385,0.142,0.1444,0.1474,0.1494,0.1538,0.1554,0.1565,0.1574,0.1631,0.1633,0.1611,0.1679,0.1651,0.1656,0.1677,0.1686,0.1692,0.1691,0.1586,0,0,0,0,0,0.1311,0.1336,0.1369,0.1397,0.1418,0.1451,0.1476,0.1499,0.1535,0.1556,0.1583,0.1615,0.1643,0.1667,0.1688,0.1728,0.1744,0.1749,0.1756,0.1762,0.1766,0.1815,0.1826,0.1704,0.1704,0.1704,0,0,0.1315,0.134,0.1356,0.1398,0.1428,0.1457,0.1469,0.1516,0.1542,0.1557,0.1612,0.1641,0.166,0.1706,0.1731,0.1717,0.1809,0.1767,0.1771,0.1772,0.182,0.1832,0.1843,0.1707,0.1707,0.1706,0,0,0.1327,0.1362,0.1384,0.1413,0.1466,0.1486,0.1509,0.1552,0.1579,0.1635,0.1649,0.1701,0.1746,0.1763,0.1776,0.1835,0.1842,0.1846,0.1882,0.193,0.194,0.1949,0.2,0.2013,0.1851,0.1851,0.1851,0,0.1334,0.1361,0.1398,0.1425,0.1452,0.1503,0.1529,0.1561,0.1619,0.1645,0.1664,0.1757,0.1768,0.1825,0.1843,0.1848,0.1883,0.1846,0.1938,0.1947,0.1956,0.2005,0.2019,0.1854,0.1853,0.1853,0.1853,0,0.1349,0.1384,0.1404,0.1451,0.1485,0.1522,0.1566,0.161,0.1656,0.1688,0.1772,0.1811,0.1868,0.188,0.1879,0.1947,0.1956,0.1938,0.1913,0.197,0.2019,0.2033,0.1857,0.1856,0.1856,0.1855,0,0,0.1327,0.1399,0.1408,0.1434,0.1502,0.1528,0.1581,0.1636,0.1682,0.1756,0.1824,0.188,0.1924,0.1943,0.1964,0.2006,0.2091,0.2003,0.2005,0.2047,0.2216,0.2092,0.2096,0.2097,0.21,0.2101,0.2231,0,0.1331,0.1374,0.1412,0.1464,0.1491,0.155,0.1598,0.1658,0.1717,0.1796,0.1865,0.1941,0.1942,0.1993,0.2036,0.208,0.2128,0.2058,0.216,0.2163,0.204,0.2107,0.2109,0.2241,0.2244,0.2247,0.2248,0,0.1324,0.1359,0.1399,0.1474,0.1495,0.1537,0.1622,0.1677,0.1784,0.1842,0.1938,0.1992,0.2088,0.2076,0.2198,0.2162,0.2193,0.2221,0.2227,0.2102,0.2063,0.217,0.2273,0.2271,0.2269,0.2268,0.2266,0,0.1274,0.1347,0.1378,0.1401,0.1494,0.1533,0.1599,0.1696,0.1758,0.1889,0.196,0.2071,0.2165,0.2221,0.228,0.2255,0.2405,0.237,0.2294,0.2287,0.2339,0.2328,0.2448,0.2448,0.2448,0.2447,0.2447,0,0.1242,0.1275,0.1365,0.1382,0.1444,0.1523,0.1602,0.1684,0.1815,0.1899,0.2,0.2083,0.2209,0.2298,0.2323,0.2359,0.2446,0.2314,0.2312,0.2357,0.2346,0.235,0.2337,0.2452,0.2451,0.245,0.2449,0,0.1178,0.1235,0.1278,0.1378,0.142,0.1469,0.1612,0.1667,0.181,0.1927,0.1982,0.214,0.2257,0.2352,0.2463,0.2415,0.245,0.2436,0.2503,0.2501,0.2292,0.228,0.2366,0.2363,0.236,0.2357,0.2356,0,0.1142,0.1156,0.1261,0.1294,0.1345,0.1436,0.1502,0.1656,0.1718,0.1935,0.1983,0.2156,0.224,0.2315,0.2409,0.2473,0.2441,0.2444,0.2336,0.2295,0.2285,0.2278,0.2269,0.2351,0.235,0.235,0.2349,0,0.1073,0.1118,0.1157,0.1224,0.1289,0.1359,0.1468,0.151,0.169,0.1829,0.1944,0.2022,0.2161,0.2246,0.2323,0.2348,0.2428,0.2414,0.2419,0.2318,0.2278,0.2269,0.2265,0.2339,0.2341,0.2342,0.2342,0,0.1022,0.1036,0.1092,0.1142,0.1221,0.1272,0.1333,0.1425,0.1521,0.1758,0.1791,0.1978,0.2136,0.2185,0.2243,0.2276,0.224,0.2156,0.2174,0.2186,0.2065,0.1984,0.1966,0,0,0,0,0,0.097,0.0985,0.1013,0.1065,0.1135,0.1187,0.1309,0.1374,0.1542,0.1583,0.1689,0.1802,0.1924,0.2017,0.2019,0.2167,0.2242,0.2158,0.2152,0.2286,0.2297,0.2171,0,0,0,0,0,0,0.0939,0.0969,0.098,0.0989,0.1014,0.1087,0.1161,0.1269,0.1297,0.1477,0.1551,0.1696,0.1836,0.1913,0.1985,0.2016,0.1977,0.2278,0.2274,0.228,0.229,0.2299,0.2173,0,0,0,0,0]},{"header":{"parameterUnit":"m.s-1","parameterCategory":2,"la1":30.2991,"la2":30.254,"lo1":-89.0895,"lo2":-89.0444,"dy":0.0017,"dx":0.0017,"nx":28,"ny":28,"refTime":"2025-11-04T09:00:00:Z","depth":"4","parameterNumber":3,"parameterNumberName":"V-component_of_CURRENTS"},"data":[0,0,0,0,0,0,0,0,0,0,0,0,0,0,0,0,0,0,0,0,0,0,0,0,0,0,0,0,0,0,0,0,0,0,0,0,0,0,0,0,0,0,0,0,0,0,0,0,0,0,0,0,0,0,0,0,0,0,0.015,0.015,0,0.0106,0.0106,0.0105,0.0081,0.0081,0.0081,0.008,-0.0005,-0.0008,-0.001,0,0,0,0,0,0,0,0,0,0,0,0,0,0.0169,0.0169,0.015,0.015,0.0149,0.0106,0.0106,0.0105,0.0081,0.0081,0.0081,0.008,-0.0005,-0.0007,-0.001,0,0,0,0,0,0,0,0,0,0,0,0,0,0.0148,0.0169,0.0151,0.0131,0.0129,0.0106,0.0106,0.0105,0.0081,0.0081,0.008,0.008,-0.0004,-0.0007,-0.001,-0.0025,0,0,-0.002,-0.0021,0,0,0,0,0,0,0,0,0.0149,0.0147,0.0135,0.0132,0.013,0.0098,0.0081,0.0059,0.0081,0.01,0.008,0.008,0.0025,0.0019,0.0014,-0.0029,-0.0033,-0.002,-0.0022,-0.0024,-0.0024,0,0,0,0,0,0,0,0.0151,0.0149,0.0134,0.0134,0.0131,0.0109,0.0106,0.0077,0.0064,0.0099,0.0096,0.009,0.0023,0.0017,0.0011,-0.0034,-0.002,-0.0023,-0.0025,-0.0026,-0.0086,-0.0086,0,0,0,0,0,0,0.0157,0.015,0.0135,0.0133,0.0138,0.0109,0.0106,0.0109,0.0066,0.0059,0.009,0.0089,0.0022,0.0015,0.0008,0.0022,-0.0024,-0.0027,-0.0028,-0.0087,-0.0086,-0.0086,0,0,0,0,0,0,0.0157,0.0156,0.0137,0.0139,0.0135,0.0109,0.0113,0.0108,0.0101,0.0059,0.0052,0.0087,0.0022,0.0012,-0.0015,0.0017,-0.0028,-0.0031,-0.0087,-0.0086,-0.0086,0.0028,0,0,0,0,0,0,0.0158,0.0157,0.0161,0.014,0.0135,0.013,0.0113,0.0108,0.0097,0.0095,0.0054,0.0046,0.0021,-0.001,-0.0018,0.0012,-0.0033,-0.0087,-0.0087,-0.0086,0.0024,0.0032,0.004,0,0,0,0,0,0.0159,0.0168,0.0162,0.016,0.0142,0.013,0.0126,0.0107,0.0097,0.0098,0.007,0.0047,-0.0012,-0.0012,-0.0022,0.0008,-0.0088,-0.0087,-0.0086,0.002,0.0031,0.0039,0,0,0,0,0,0,0.0173,0.0166,0.0159,0.0163,0.015,0.0126,0.0124,0.0109,0.0089,0.0087,0.0047,0.0037,0.0027,-0.0008,-0.0008,-0.0011,-0.0052,-0.0053,0.0032,0.0042,0.0049,0.0071,-0.0036,0,0,0,0,0,0.018,0.0189,0.0171,0.0175,0.017,0.0147,0.0139,0.0129,0.0107,0.0098,0.0068,0.0039,0.0023,0.0012,-0.0016,-0.0022,-0.0063,-0.001,-0.0002,0.0005,0.0014,-0.0018,-0.0012,-0.0083,-0.0083,-0.0083,0,0,0.0185,0.0182,0.0187,0.0179,0.0167,0.0178,0.0143,0.0137,0.0156,0.009,0.0099,0.0061,0.0024,0.0026,0.0019,0.0002,0.0,0.0006,0.0013,0.0017,-0.0017,-0.0009,-0.0003,-0.0083,-0.0083,-0.0083,0,0,0.0208,0.02,0.0218,0.0214,0.0204,0.0196,0.0196,0.0175,0.0177,0.0173,0.014,0.0122,0.0084,0.0078,0.0069,0.0098,0.0041,0.0082,0.0147,0.0117,0.0123,0.0128,0.0078,0.0078,0.0091,0.0091,0.0092,0,0.0214,0.0239,0.0219,0.0235,0.0246,0.021,0.0237,0.0235,0.0209,0.0219,0.0188,0.0151,0.012,0.0138,0.0151,0.0122,0.0078,0.0122,0.013,0.0134,0.0137,0.0085,0.0083,0.0097,0.0096,0.0096,0.0095,0,0.0251,0.0273,0.0282,0.0303,0.0309,0.0323,0.0321,0.0328,0.0319,0.0311,0.0312,0.0263,0.0243,0.0234,0.0204,0.0219,0.017,0.0144,0.0114,0.0152,0.0093,0.0089,0.0105,0.0103,0.0101,0.01,0,0,0.0266,0.0304,0.0309,0.0339,0.0351,0.0362,0.0403,0.0429,0.0455,0.0426,0.0452,0.0428,0.0384,0.0368,0.0324,0.0301,0.0287,0.0237,0.0232,0.0202,0.0197,0.0137,0.0126,0.0257,0.0257,0.0257,0.0145,0,0.0305,0.0364,0.0373,0.0435,0.0468,0.047,0.0513,0.0531,0.0528,0.0537,0.0503,0.0493,0.0442,0.0424,0.04,0.031,0.0282,0.0318,0.0152,0.0147,0.0102,0.0123,0.0258,0.0142,0.0141,0.014,0.014,0,0.034,0.0382,0.0454,0.0522,0.0536,0.0568,0.063,0.066,0.067,0.0666,0.065,0.0597,0.0569,0.0508,0.0397,0.0416,0.0321,0.0247,0.024,0.0144,0.0081,0.0094,0.0132,0.0132,0.0133,0.0133,0.0134,0,0.0369,0.0438,0.0505,0.0525,0.0591,0.0633,0.0667,0.0698,0.0731,0.0734,0.0731,0.0686,0.0642,0.0543,0.0388,0.0388,0.024,0.0222,0.008,0.0073,0.0111,0.0106,0.0145,0.0145,0.0145,0.0145,0.0146,0,0.0408,0.046,0.0524,0.056,0.0642,0.0673,0.0748,0.0773,0.0803,0.083,0.0787,0.0768,0.0644,0.0537,0.041,0.0225,0.0255,0.0092,0.0047,0.0158,0.016,0.0107,0.0104,0.0141,0.0142,0.0143,0.0144,0,0.0423,0.0466,0.0544,0.0628,0.0657,0.0711,0.0796,0.0841,0.0861,0.0889,0.0888,0.082,0.0677,0.0532,0.0348,0.0238,0.008,0.0004,0.0121,0.0083,-0.0072,-0.0068,-0.015,-0.0152,-0.0155,-0.0157,-0.0159,0,0.0439,0.048,0.0581,0.0626,0.0665,0.0749,0.0808,0.0866,0.0903,0.0907,0.091,0.0794,0.0721,0.0429,0.0274,0.0029,-0.0012,-0.0093,-0.0062,-0.0063,-0.0099,-0.0091,-0.0084,-0.0163,-0.0163,-0.0164,-0.0165,0,0.0463,0.0493,0.0553,0.0644,0.0714,0.0798,0.0875,0.0905,0.0957,0.0976,0.0913,0.0773,0.0602,0.0401,0.02,0.0029,-0.0029,-0.0119,-0.0115,-0.0086,-0.008,-0.0112,-0.0102,-0.0173,-0.0172,-0.0171,-0.0171,0,0.0469,0.0504,0.0573,0.0649,0.074,0.0812,0.0861,0.0899,0.0939,0.0942,0.0911,0.0751,0.067,0.0396,0.0216,0.0038,-0.0004,-0.0051,-0.0051,-0.0044,0.0019,0.0046,-0.0045,0,0,0,0,0,0.0469,0.0501,0.0573,0.0658,0.0747,0.0799,0.0891,0.0932,0.0977,0.0934,0.0928,0.077,0.0499,0.039,0.0199,0.0155,-0.0044,-0.0076,-0.0099,-0.022,-0.021,-0.016,0,0,0,0,0,0,0.0465,0.0525,0.0562,0.0649,0.0704,0.0802,0.0861,0.0894,0.0874,0.089,0.0752,0.0707,0.0448,0.0601,0.0188,0.0136,0.0091,-0.0189,-0.0194,-0.0226,-0.0217,-0.0209,-0.0153,0,0,0,0,0]}]]